This is the latest recevied weather packets stored in our database for station/object K6CED. If no packets are shown the sender has not sent any weather packets the latest 10 day(s).
| Time | Temp. | Humidity | Pressure | Rain* | Wind** | Luminosity | Snow |
|---|---|---|---|---|---|---|---|
| 1777911369 | 15° C | 68% | 1017.9 hPa | 0 mm | - | 455 W/m² | - |
| 1777911067 | 15.56° C | 66% | 1017.6 hPa | 0 mm | - | 255 W/m² | - |
| 1777910764 | 15.56° C | 66% | 1017.6 hPa | 0 mm | - | 604 W/m² | - |
| 1777910461 | 15° C | 68% | 1017.6 hPa | 0 mm | - | 276 W/m² | - |
| 1777910157 | 14.44° C | 71% | 1017.7 hPa | 0 mm | - | 318 W/m² | - |
| 1777909855 | 15° C | 71% | 1017.6 hPa | 0 mm | - | 281 W/m² | - |
| 1777909551 | 15° C | 71% | 1017.5 hPa | 0 mm | - | 270 W/m² | - |
| 1777909249 | 14.44° C | 72% | 1017.4 hPa | 0 mm | - | 253 W/m² | - |
| 1777908947 | 14.44° C | 75% | 1017.6 hPa | 0 mm | - | 140 W/m² | - |
| 1777908645 | 14.44° C | 78% | 1017.8 hPa | 0 mm | - | 301 W/m² | - |
| 1777908341 | 14.44° C | 78% | 1017.3 hPa | 0 mm | - | 220 W/m² | - |
| 1777908038 | 13.89° C | 79% | 1017.6 hPa | 0 mm | - | 259 W/m² | - |
| 1777907733 | 14.44° C | 77% | 1017.4 hPa | 0 mm | - | 227 W/m² | - |
| 1777907428 | 13.89° C | 78% | 1017.6 hPa | 0 mm | - | 383 W/m² | - |
| 1777907126 | 13.89° C | 79% | 1017.7 hPa | 0 mm | - | 351 W/m² | - |
| 1777906823 | 13.89° C | 79% | 1017.6 hPa | 0 mm | - | 272 W/m² | - |
| 1777906520 | 13.89° C | 81% | 1017.6 hPa | 0 mm | - | 360 W/m² | - |
| 1777906215 | 13.33° C | 82% | 1017.7 hPa | 0 mm | - | 264 W/m² | - |
| 1777905912 | 12.78° C | 83% | 1017.4 hPa | 0 mm | - | 272 W/m² | - |
| 1777905609 | 12.78° C | 84% | 1017.5 hPa | 0 mm | - | 104 W/m² | - |
| 1777905306 | 12.78° C | 85% | 1017.2 hPa | 0 mm | - | 81 W/m² | - |
| 1777905003 | 12.78° C | 85% | 1017.3 hPa | 0 mm | - | 88 W/m² | - |
| 1777904700 | 12.78° C | 85% | 1017.4 hPa | 0 mm | - | 101 W/m² | - |
| 1777904397 | 12.22° C | 85% | 1017.3 hPa | 0 mm | - | 110 W/m² | - |
| 1777904094 | 12.22° C | 86% | 1017.4 hPa | 0 mm | - | 106 W/m² | - |
* Rain latest hour (hover to see other rain measurements)
** Current wind speed in m/s (hover to see current wind gust speed)